,,Stat6,,Stat2,,Stat8,,Stat9,,Stat10,,Wind1,,Wind1,
time,status,PA1M_AVG,status,PR1M_SUM,status,RH1M_AVG,status,SR1M_AVG,status,TA1M_AVG,status,W1dAve1m,status,W1sAve1m,
2005-07-07, 00:00:00,VALID,919.526,VALID,0,VALID,100,VALID,-0.0169808,VALID,18.8764,VALID,81,VALID,0,
2005-07-07, 00:01:00,VALID,919.534,VALID,0,VALID,100,VALID,-0.0509425,VALID,18.8923,VALID,81,VALID,0,
2005-07-07, 00:02:00,VALID,919.535,VALID,0,VALID,99.9891,VALID,-0.0169808,VALID,18.8925,VALID,81,VALID,0,
2005-07-07, 00:03:00,VALID,919.529,VALID,0,VALID,99.7777,VALID,0,VALID,18.8535,VALID,81,VALID,0,
2005-07-07, 00:04:00,VALID,919.523,VALID,0,VALID,99.5196,VALID,-0.0339617,VALID,18.8317,VALID,81,VALID,0,
2005-07-07, 00:05:00,VALID,919.511,VALID,0,VALID,99.6544,VALID,-0.0339617,VALID,18.815,VALID,81,VALID,0,
2005-07-07, 00:06:00,VALID,919.485,VALID,0,VALID,99.9639,VALID,-0.0339617,VALID,18.8339,VALID,81,VALID,0,
2005-07-07, 00:07:00,VALID,919.458,VALID,0,VALID,99.9977,VALID,-0.0339617,VALID,18.8734,VALID,81,VALID,0,
2005-07-07, 00:08:00,VALID,919.447,VALID,0,VALID,99.7866,VALID,-0.0509425,VALID,18.8503,VALID,81,VALID,0,
2005-07-07, 00:09:00,VALID,919.418,VALID,0,VALID,99.5336,VALID,-0.0339617,VALID,18.8284,VALID,81,VALID,0,
2005-07-07, 00:10:00,VALID,919.417,VALID,0,VALID,99.4916,VALID,-0.0169808,VALID,18.812,VALID,81,VALID,0.0824468,
2005-07-07, 00:11:00,VALID,919.417,VALID,0,VALID,99.208,VALID,-0.0339617,VALID,18.7708,VALID,81,VALID,0.000679348,
2005-07-07, 00:12:00,VALID,919.43,VALID,0,VALID,99.3301,VALID,-0.0339617,VALID,18.7567,VALID,81,VALID,0,
2005-07-07, 00:13:00,VALID,919.437,VALID,0,VALID,99.3835,VALID,0,VALID,18.7373,VALID,81,VALID,0,
2005-07-07, 00:14:00,VALID,919.439,VALID,0,VALID,99.8248,VALID,-0.0169808,VALID,18.7631,VALID,81,VALID,0,
2005-07-07, 00:15:00,VALID,919.455,VALID,0,VALID,99.8515,VALID,-0.0169808,VALID,18.7728,VALID,81,VALID,0.276563,
2005-07-07, 00:16:00,VALID,919.454,VALID,0,VALID,99.8965,VALID,-0.0679233,VALID,18.7733,VALID,81,VALID,0.474657,
2005-07-07, 00:17:00,VALID,919.45,VALID,0,VALID,99.4115,VALID,-0.0849042,VALID,18.7311,VALID,81,VALID,0.622582,
2005-07-07, 00:18:00,VALID,919.453,VALID,0,VALID,99.0338,VALID,-0.0339617,VALID,18.6536,VALID,81,VALID,0.714666,
2005-07-07, 00:19:00,VALID,919.457,VALID,0,VALID,99.0198,VALID,-0.0509425,VALID,18.5955,VALID,81,VALID,0.752096,
2005-07-07, 00:20:00,VALID,919.454,VALID,0,VALID,99.3441,VALID,-0.0339617,VALID,18.5602,VALID,81,VALID,0.793605,
2005-07-07, 00:21:00,VALID,919.473,VALID,0,VALID,99.4547,VALID,-0.0849042,VALID,18.5314,VALID,81,VALID,0.791481,
2005-07-07, 00:22:00,VALID,919.467,VALID,0,VALID,99.8146,VALID,-0.0679233,VALID,18.5215,VALID,80,VALID,0.826079,
2005-07-07, 00:23:00,VALID,919.463,VALID,0,VALID,99.5844,VALID,-0.0849042,VALID,18.4731,VALID,77,VALID,0.785528,
2005-07-07, 00:24:00,VALID,919.453,VALID,0,VALID,99.9888,VALID,-0.0679233,VALID,18.4927,VALID,76,VALID,0.663132,
2005-07-07, 00:25:00,VALID,919.445,VALID,0,VALID,100,VALID,-0.0509425,VALID,18.5185,VALID,76,VALID,0.358774,
2005-07-07, 00:26:00,VALID,919.423,VALID,0,VALID,100,VALID,-0.0339617,VALID,18.5406,VALID,76,VALID,0.457698,
2005-07-07, 00:27:00,VALID,919.403,VALID,0,VALID,100,VALID,-0.0169808,VALID,18.5471,VALID,76,VALID,0.632635,
2005-07-07, 00:28:00,VALID,919.391,VALID,0,VALID,99.999,VALID,-0.0509425,VALID,18.4887,VALID,76,VALID,0.748512,
2005-07-07, 00:29:00,VALID,919.388,VALID,0,VALID,100,VALID,-0.0339617,VALID,18.5312,VALID,76,VALID,0.640451,
2005-07-07, 00:30:00,VALID,919.388,VALID,0,VALID,100,VALID,-0.0509425,VALID,18.5669,VALID,76,VALID,0.679102,
2005-07-07, 00:31:00,VALID,919.391,VALID,0,VALID,100,VALID,-0.0509425,VALID,18.5997,VALID,82,VALID,0.799538,
2005-07-07, 00:32:00,VALID,919.393,VALID,0,VALID,100,VALID,-0.0339617,VALID,18.6253,VALID,91,VALID,0.875186,
2005-07-07, 00:33:00,VALID,919.396,VALID,0,VALID,100,VALID,-0.0679233,VALID,18.6186,VALID,93,VALID,0.712391,
2005-07-07, 00:34:00,VALID,919.376,VALID,0,VALID,100,VALID,-0.0679233,VALID,18.5436,VALID,93,VALID,0.53776,
2005-07-07, 00:35:00,VALID,919.379,VALID,0,VALID,100,VALID,-0.0339617,VALID,18.5125,VALID,93,VALID,0.431996,
2005-07-07, 00:36:00,VALID,919.386,VALID,0,VALID,100,VALID,-0.0849042,VALID,18.444,VALID,93,VALID,0.260231,
2005-07-07, 00:37:00,VALID,919.371,VALID,0,VALID,100,VALID,-0.0509425,VALID,18.4018,VALID,93,VALID,0.425327,
2005-07-07, 00:38:00,VALID,919.355,VALID,0,VALID,100,VALID,-0.0509425,VALID,18.3859,VALID,93,VALID,0.11849,
2005-07-07, 00:39:00,VALID,919.341,VALID,0,VALID,100,VALID,-0.0849042,VALID,18.3474,VALID,93,VALID,0.000169837,
2005-07-07, 00:40:00,VALID,919.335,VALID,0,VALID,100,VALID,-0.0509425,VALID,18.3573,VALID,93,VALID,0.248757,
2005-07-07, 00:41:00,VALID,919.328,VALID,0,VALID,100,VALID,-0.0679233,VALID,18.3799,VALID,93,VALID,0.0498935,
2005-07-07, 00:42:00,VALID,919.339,VALID,0,VALID,100,VALID,-0.0169808,VALID,18.4175,VALID,93,VALID,0.214062,
2005-07-07, 00:43:00,VALID,919.339,VALID,0,VALID,100,VALID,0,VALID,18.4461,VALID,89,VALID,0.523438,
2005-07-07, 00:44:00,VALID,919.315,VALID,0,VALID,100,VALID,0.0339617,VALID,18.5106,VALID,87,VALID,0.0222942,
2005-07-07, 00:45:00,VALID,919.312,VALID,0,VALID,100,VALID,0.0169808,VALID,18.5397,VALID,87,VALID,0.0672238,
2005-07-07, 00:46:00,VALID,919.302,VALID,0,VALID,100,VALID,0.0169808,VALID,18.4982,VALID,87,VALID,0.35403,
2005-07-07, 00:47:00,VALID,919.307,VALID,0,VALID,100,VALID,0,VALID,18.4947,VALID,87,VALID,0.226563,
2005-07-07, 00:48:00,VALID,919.311,VALID,0,VALID,100,VALID,0.0169808,VALID,18.4627,VALID,87,VALID,0.115007,
2005-07-07, 00:49:00,VALID,919.331,VALID,0,VALID,100,VALID,0,VALID,18.4332,VALID,87,VALID,0.195858,
2005-07-07, 00:50:00,VALID,919.343,VALID,0,VALID,100,VALID,0,VALID,18.4851,VALID,87,VALID,0.00218023,
2005-07-07, 00:51:00,VALID,919.346,VALID,0,VALID,100,VALID,0.0339617,VALID,18.5111,VALID,87,VALID,0.202398,
2005-07-07, 00:52:00,VALID,919.348,VALID,0,VALID,100,VALID,0.0849042,VALID,18.5141,VALID,94,VALID,0.492378,
2005-07-07, 00:53:00,VALID,919.343,VALID,0,VALID,100,VALID,0.0509425,VALID,18.4945,VALID,116,VALID,0.59737,
2005-07-07, 00:54:00,VALID,919.327,VALID,0,VALID,100,VALID,0.101885,VALID,18.4881,VALID,149,VALID,0.639096,
2005-07-07, 00:55:00,VALID,919.316,VALID,0,VALID,100,VALID,0.0509425,VALID,18.4883,VALID,164,VALID,0.636364,
2005-07-07, 00:56:00,VALID,919.274,VALID,0,VALID,100,VALID,0,VALID,18.4558,VALID,164,VALID,0.397852,
2005-07-07, 00:57:00,VALID,919.25,VALID,0,VALID,100,VALID,0.0849042,VALID,18.4265,VALID,164,VALID,0.165179,
2005-07-07, 00:58:00,VALID,919.214,VALID,0,VALID,100,VALID,0.0169808,VALID,18.4302,VALID,164,VALID,0.431176,
2005-07-07, 00:59:00,VALID,919.181,VALID,0,VALID,100,VALID,0.0849042,VALID,18.459,VALID,164,VALID,0.150391,
2005-07-07, 01:00:00,VALID,919.144,VALID,0,VALID,100,VALID,0.0679233,VALID,18.427,VALID,164,VALID,0.00109012,
2005-07-07, 01:01:00,VALID,919.094,VALID,0,VALID,100,VALID,0.0339617,VALID,18.459,VALID,164,VALID,0,
2005-07-07, 01:02:00,VALID,919.071,VALID,0,VALID,100,VALID,0.0339617,VALID,18.5104,VALID,164,VALID,0,
2005-07-07, 01:03:00,VALID,919.059,VALID,0,VALID,100,VALID,0,VALID,18.4682,VALID,162,VALID,0.109747,
2005-07-07, 01:04:00,VALID,919.049,VALID,0,VALID,99.9738,VALID,0.0509425,VALID,18.34,VALID,162,VALID,0.0167151,
2005-07-07, 01:05:00,VALID,919.054,VALID,0,VALID,100,VALID,0.0339617,VALID,18.3654,VALID,162,VALID,0,
2005-07-07, 01:06:00,VALID,919.073,VALID,0,VALID,100,VALID,0.0509425,VALID,18.3878,VALID,162,VALID,0,
2005-07-07, 01:07:00,VALID,919.08,VALID,0,VALID,100,VALID,0.0339617,VALID,18.4011,VALID,162,VALID,0.0292969,
2005-07-07, 01:08:00,VALID,919.1,VALID,0,VALID,100,VALID,0.0679233,VALID,18.4302,VALID,162,VALID,0.437691,
2005-07-07, 01:09:00,VALID,919.103,VALID,0,VALID,100,VALID,0.0679233,VALID,18.4724,VALID,162,VALID,0.770241,
2005-07-07, 01:10:00,VALID,919.118,VALID,0,VALID,100,VALID,0.0679233,VALID,18.4525,VALID,168,VALID,0.914825,
2005-07-07, 01:11:00,VALID,919.141,VALID,0,VALID,100,VALID,0.0339617,VALID,18.4401,VALID,168,VALID,1.0092,
2005-07-07, 01:12:00,VALID,919.149,VALID,0,VALID,100,VALID,-0.0339617,VALID,18.418,VALID,167,VALID,1.03125,
2005-07-07, 01:13:00,VALID,919.138,VALID,0,VALID,100,VALID,-0.0509425,VALID,18.3896,VALID,168,VALID,0.934028,
2005-07-07, 01:14:00,VALID,919.12,VALID,0,VALID,100,VALID,-0.0679233,VALID,18.3993,VALID,170,VALID,0.716332,
2005-07-07, 01:15:00,VALID,919.095,VALID,0,VALID,100,VALID,-0.0509425,VALID,18.412,VALID,172,VALID,0.393973,
2005-07-07, 01:16:00,VALID,919.072,VALID,0,VALID,100,VALID,-0.0679233,VALID,18.4147,VALID,172,VALID,0.194425,
2005-07-07, 01:17:00,VALID,919.036,VALID,0,VALID,100,VALID,-0.0509425,VALID,18.4542,VALID,172,VALID,0.113467,
2005-07-07, 01:18:00,VALID,919.005,VALID,0,VALID,100,VALID,-0.0679233,VALID,18.4604,VALID,172,VALID,0.0475852,
2005-07-07, 01:19:00,VALID,918.975,VALID,0,VALID,100,VALID,-0.0509425,VALID,18.4798,VALID,172,VALID,0.206771,
2005-07-07, 01:20:00,VALID,918.948,VALID,0,VALID,100,VALID,-0.0849042,VALID,18.489,VALID,172,VALID,0,
2005-07-07, 01:21:00,VALID,918.937,VALID,0,VALID,100,VALID,-0.0849042,VALID,18.5187,VALID,172,VALID,0,
2005-07-07, 01:22:00,VALID,918.912,VALID,0,VALID,100,VALID,-0.0849042,VALID,18.4961,VALID,172,VALID,0,
2005-07-07, 01:23:00,VALID,918.904,VALID,0,VALID,100,VALID,-0.0509425,VALID,18.4671,VALID,172,VALID,0,
2005-07-07, 01:24:00,VALID,918.871,VALID,0,VALID,100,VALID,-0.0169808,VALID,18.4087,VALID,172,VALID,0.159137,
2005-07-07, 01:25:00,VALID,918.861,VALID,0,VALID,100,VALID,-0.0339617,VALID,18.3896,VALID,172,VALID,0.241071,
2005-07-07, 01:26:00,VALID,918.833,VALID,0,VALID,100,VALID,-0.0509425,VALID,18.4475,VALID,169,VALID,0.475818,
2005-07-07, 01:27:00,VALID,918.824,VALID,0,VALID,100,VALID,-0.0509425,VALID,18.4728,VALID,127,VALID,0.69478,
2005-07-07, 01:28:00,VALID,918.827,VALID,0,VALID,100,VALID,-0.0509425,VALID,18.4443,VALID,126,VALID,0.593936,
2005-07-07, 01:29:00,VALID,918.827,VALID,0,VALID,100,VALID,-0.0509425,VALID,18.3633,VALID,126,VALID,0.549219,
2005-07-07, 01:30:00,VALID,918.836,VALID,0,VALID,100,VALID,-0.0679233,VALID,18.3124,VALID,126,VALID,0.654762,
2005-07-07, 01:31:00,VALID,918.83,VALID,0,VALID,100,VALID,-0.0679233,VALID,18.2955,VALID,126,VALID,0.566939,
2005-07-07, 01:32:00,VALID,918.828,VALID,0,VALID,100,VALID,-0.0509425,VALID,18.2799,VALID,122,VALID,0.627096,
2005-07-07, 01:33:00,VALID,918.824,VALID,0,VALID,100,VALID,-0.0679233,VALID,18.2377,VALID,101,VALID,0.751715,
2005-07-07, 01:34:00,VALID,918.794,VALID,0,VALID,100,VALID,-0.0849042,VALID,18.1828,VALID,99,VALID,1.06504,
2005-07-07, 01:35:00,VALID,918.777,VALID,0,VALID,100,VALID,-0.0509425,VALID,18.1542,VALID,122,VALID,1.1077,
2005-07-07, 01:36:00,VALID,918.742,VALID,0,VALID,100,VALID,-0.0509425,VALID,18.1438,VALID,139,VALID,0.903392,
2005-07-07, 01:37:00,VALID,918.728,VALID,0,VALID,100,VALID,-0.0679233,VALID,18.1438,VALID,138,VALID,0.748785,
2005-07-07, 01:38:00,VALID,918.719,VALID,0,VALID,100,VALID,-0.0509425,VALID,18.1212,VALID,135,VALID,0.752725,
2005-07-07, 01:39:00,VALID,918.702,VALID,0,VALID,100,VALID,-0.0679233,VALID,18.1051,VALID,130,VALID,0.728016,
2005-07-07, 01:40:00,VALID,918.689,VALID,0,VALID,100,VALID,-0.0509425,VALID,18.0832,VALID,127,VALID,0.754102,
2005-07-07, 01:41:00,VALID,918.696,VALID,0,VALID,100,VALID,-0.0339617,VALID,18.0539,VALID,135,VALID,1.22923,
2005-07-07, 01:42:00,VALID,918.684,VALID,0,VALID,100,VALID,-0.0169808,VALID,18.0498,VALID,136,VALID,1.31641,
2005-07-07, 01:43:00,VALID,918.697,VALID,0,VALID,100,VALID,0,VALID,18.059,VALID,137,VALID,1.28984,
2005-07-07, 01:44:00,VALID,918.704,VALID,0,VALID,100,VALID,0.0169808,VALID,18.056,VALID,136,VALID,1.18274,
2005-07-07, 01:45:00,VALID,918.71,VALID,0,VALID,100,VALID,0.0169808,VALID,18.0562,VALID,132,VALID,1.09613,
2005-07-07, 01:46:00,VALID,918.713,VALID,0,VALID,100,VALID,0.0169808,VALID,18.0721,VALID,132,VALID,1.2162,
2005-07-07, 01:47:00,VALID,918.725,VALID,0,VALID,100,VALID,0,VALID,18.1111,VALID,140,VALID,1.29948,
2005-07-07, 01:48:00,VALID,918.718,VALID,0,VALID,100,VALID,0,VALID,18.1302,VALID,135,VALID,1.02847,
2005-07-07, 01:49:00,VALID,918.721,VALID,0,VALID,100,VALID,0,VALID,18.1404,VALID,129,VALID,1.18611,
2005-07-07, 01:50:00,VALID,918.734,VALID,0,VALID,100,VALID,0.0169808,VALID,18.1401,VALID,132,VALID,1.2956,
2005-07-07, 01:51:00,VALID,918.727,VALID,0,VALID,100,VALID,0.0169808,VALID,18.1431,VALID,132,VALID,0.96689,
2005-07-07, 01:52:00,VALID,918.746,VALID,0,VALID,100,VALID,0,VALID,18.1401,VALID,126,VALID,0.918146,
2005-07-07, 01:53:00,VALID,918.734,VALID,0,VALID,100,VALID,0.0169808,VALID,18.1404,VALID,123,VALID,0.936141,
2005-07-07, 01:54:00,VALID,918.73,VALID,0,VALID,100,VALID,0.0169808,VALID,18.1272,VALID,129,VALID,0.868862,
2005-07-07, 01:55:00,VALID,918.716,VALID,0,VALID,100,VALID,0.0339617,VALID,18.1074,VALID,124,VALID,0.703125,
2005-07-07, 01:56:00,VALID,918.72,VALID,0,VALID,100,VALID,0.0169808,VALID,18.1014,VALID,114,VALID,0.649926,
2005-07-07, 01:57:00,VALID,918.715,VALID,0,VALID,100,VALID,0.0339617,VALID,18.0945,VALID,120,VALID,0.519903,
2005-07-07, 01:58:00,VALID,918.711,VALID,0,VALID,100,VALID,0,VALID,18.0977,VALID,127,VALID,0.935742,
2005-07-07, 01:59:00,VALID,918.716,VALID,0,VALID,100,VALID,0,VALID,18.1111,VALID,120,VALID,0.754542,
2005-07-07, 02:00:00,VALID,918.707,VALID,0,VALID,100,VALID,0,VALID,18.1173,VALID,129,VALID,0.91684,
2005-07-07, 02:01:00,VALID,918.714,VALID,0,VALID,100,VALID,0,VALID,18.1786,VALID,130,VALID,0.633507,
2005-07-07, 02:02:00,VALID,918.704,VALID,0,VALID,100,VALID,0.0509425,VALID,18.1946,VALID,127,VALID,0.483842,
2005-07-07, 02:03:00,VALID,918.69,VALID,0,VALID,100,VALID,0.0169808,VALID,18.1876,VALID,129,VALID,0.651228,
2005-07-07, 02:04:00,VALID,918.671,VALID,0,VALID,100,VALID,0,VALID,18.2045,VALID,129,VALID,0.249428,
2005-07-07, 02:05:00,VALID,918.634,VALID,0,VALID,100,VALID,0.0169808,VALID,18.2107,VALID,111,VALID,0.597284,
2005-07-07, 02:06:00,VALID,918.61,VALID,0,VALID,100,VALID,0,VALID,18.2045,VALID,100,VALID,0.82649,
2005-07-07, 02:07:00,VALID,918.576,VALID,0,VALID,100,VALID,0.0169808,VALID,18.204,VALID,87,VALID,0.785866,
2005-07-07, 02:08:00,VALID,918.54,VALID,0,VALID,100,VALID,0.0509425,VALID,18.2008,VALID,92,VALID,0.666853,
2005-07-07, 02:09:00,VALID,918.521,VALID,0,VALID,100,VALID,0.0339617,VALID,18.2111,VALID,88,VALID,0.870593,
2005-07-07, 02:10:00,VALID,918.499,VALID,0,VALID,100,VALID,0,VALID,18.1946,VALID,79,VALID,1.05878,
2005-07-07, 02:11:00,VALID,918.484,VALID,0,VALID,100,VALID,0.0339617,VALID,18.1945,VALID,84,VALID,1.0476,
2005-07-07, 02:12:00,VALID,918.475,VALID,0,VALID,100,VALID,0.0339617,VALID,18.1883,VALID,82,VALID,0.928819,
2005-07-07, 02:13:00,VALID,918.469,VALID,0,VALID,100,VALID,0,VALID,18.1918,VALID,80,VALID,0.961124,
2005-07-07, 02:14:00,VALID,918.451,VALID,0,VALID,100,VALID,0,VALID,18.1849,VALID,81,VALID,0.902249,
2005-07-07, 02:15:00,VALID,918.437,VALID,0,VALID,100,VALID,0,VALID,18.1948,VALID,80,VALID,0.822545,
2005-07-07, 02:16:00,VALID,918.431,VALID,0,VALID,100,VALID,0,VALID,18.2005,VALID,80,VALID,0.803622,
2005-07-07, 02:17:00,VALID,918.417,VALID,0,VALID,100,VALID,0.0169808,VALID,18.2241,VALID,77,VALID,0.807884,
2005-07-07, 02:18:00,VALID,918.398,VALID,0,VALID,100,VALID,0.0169808,VALID,18.2102,VALID,77,VALID,0.893288,
2005-07-07, 02:19:00,VALID,918.389,VALID,0,VALID,100,VALID,0.0339617,VALID,18.2171,VALID,77,VALID,0.801962,
2005-07-07, 02:20:00,VALID,918.372,VALID,0,VALID,100,VALID,0,VALID,18.201,VALID,77,VALID,0.623402,
2005-07-07, 02:21:00,VALID,918.369,VALID,0,VALID,100,VALID,0,VALID,18.2042,VALID,82,VALID,0.857617,
2005-07-07, 02:22:00,VALID,918.353,VALID,0,VALID,100,VALID,0,VALID,18.2204,VALID,98,VALID,1.09821,
2005-07-07, 02:23:00,VALID,918.33,VALID,0,VALID,100,VALID,-0.0169808,VALID,18.2307,VALID,101,VALID,1.2832,
2005-07-07, 02:24:00,VALID,918.34,VALID,0,VALID,100,VALID,0,VALID,18.2139,VALID,107,VALID,1.31286,
2005-07-07, 02:25:00,VALID,918.342,VALID,0,VALID,100,VALID,0.0169808,VALID,18.1916,VALID,111,VALID,1.50509,
2005-07-07, 02:26:00,VALID,918.344,VALID,0,VALID,100,VALID,0.0169808,VALID,18.1916,VALID,107,VALID,1.33521,
2005-07-07, 02:27:00,VALID,918.352,VALID,0,VALID,100,VALID,0,VALID,18.1782,VALID,116,VALID,1.22965,
2005-07-07, 02:28:00,VALID,918.342,VALID,0,VALID,100,VALID,0,VALID,18.1881,VALID,110,VALID,1.27214,
2005-07-07, 02:29:00,VALID,918.34,VALID,0,VALID,100,VALID,0,VALID,18.1945,VALID,120,VALID,1.29048,
2005-07-07, 02:30:00,VALID,918.318,VALID,0,VALID,100,VALID,0,VALID,18.2075,VALID,132,VALID,1.36445,
2005-07-07, 02:31:00,VALID,918.316,VALID,0,VALID,100,VALID,0,VALID,18.2238,VALID,123,VALID,1.16602,
2005-07-07, 02:32:00,VALID,918.299,VALID,0,VALID,100,VALID,0.0339617,VALID,18.24,VALID,122,VALID,0.857088,
2005-07-07, 02:33:00,VALID,918.286,VALID,0,VALID,100,VALID,0.0169808,VALID,18.2333,VALID,122,VALID,0.884084,
2005-07-07, 02:34:00,VALID,918.249,VALID,0,VALID,100,VALID,0,VALID,18.2303,VALID,132,VALID,1.1625,
2005-07-07, 02:35:00,VALID,918.23,VALID,0,VALID,100,VALID,0,VALID,18.2437,VALID,143,VALID,0.939174,
2005-07-07, 02:36:00,VALID,918.201,VALID,0,VALID,100,VALID,-0.0169808,VALID,18.2561,VALID,128,VALID,0.788681,
2005-07-07, 02:37:00,VALID,918.177,VALID,0,VALID,100,VALID,0.0169808,VALID,18.2789,VALID,120,VALID,0.821733,
2005-07-07, 02:38:00,VALID,918.165,VALID,0,VALID,100,VALID,0,VALID,18.2882,VALID,105,VALID,0.732195,
2005-07-07, 02:39:00,VALID,918.134,VALID,0,VALID,100,VALID,0,VALID,18.2916,VALID,121,VALID,0.74564,
2005-07-07, 02:40:00,VALID,918.122,VALID,0,VALID,100,VALID,0,VALID,18.2884,VALID,119,VALID,0.75186,
2005-07-07, 02:41:00,VALID,918.096,VALID,0,VALID,100,VALID,0,VALID,18.3078,VALID,117,VALID,0.736506,
2005-07-07, 02:42:00,VALID,918.084,VALID,0,VALID,100,VALID,0.0169808,VALID,18.3045,VALID,105,VALID,0.694767,
2005-07-07, 02:43:00,VALID,918.061,VALID,0,VALID,100,VALID,-0.0509425,VALID,18.3091,VALID,99,VALID,0.40957,
2005-07-07, 02:44:00,VALID,918.049,VALID,0,VALID,100,VALID,-0.0849042,VALID,18.2893,VALID,99,VALID,0.402158,
2005-07-07, 02:45:00,VALID,918.036,VALID,0,VALID,99.9212,VALID,-0.0679233,VALID,18.257,VALID,99,VALID,0.429324,
2005-07-07, 02:46:00,VALID,918.015,VALID,0,VALID,99.9499,VALID,-0.0509425,VALID,18.2379,VALID,99,VALID,0.792886,
2005-07-07, 02:47:00,VALID,918.005,VALID,0,VALID,100,VALID,-0.0849042,VALID,18.2312,VALID,99,VALID,0.930233,
2005-07-07, 02:48:00,VALID,918.001,VALID,0,VALID,100,VALID,-0.0679233,VALID,18.2349,VALID,102,VALID,1.07124,
2005-07-07, 02:49:00,VALID,917.984,VALID,0,VALID,100,VALID,-0.0849042,VALID,18.2284,VALID,111,VALID,0.885298,
2005-07-07, 02:50:00,VALID,917.983,VALID,0,VALID,100,VALID,-0.101885,VALID,18.2222,VALID,102,VALID,0.788021,
2005-07-07, 02:51:00,VALID,917.969,VALID,0,VALID,100,VALID,-0.0339617,VALID,18.222,VALID,103,VALID,0.911014,
2005-07-07, 02:52:00,VALID,917.964,VALID,0,VALID,100,VALID,-0.0679233,VALID,18.2257,VALID,103,VALID,0.638417,
2005-07-07, 02:53:00,VALID,917.956,VALID,0,VALID,100,VALID,-0.0849042,VALID,18.2056,VALID,103,VALID,0.752725,
2005-07-07, 02:54:00,VALID,917.924,VALID,0,VALID,100,VALID,-0.0849042,VALID,18.2319,VALID,103,VALID,0.716751,
2005-07-07, 02:55:00,VALID,917.901,VALID,0,VALID,100,VALID,-0.0849042,VALID,18.2155,VALID,106,VALID,0.784412,
2005-07-07, 02:56:00,VALID,917.858,VALID,0,VALID,100,VALID,-0.0509425,VALID,18.222,VALID,104,VALID,0.894817,
2005-07-07, 02:57:00,VALID,917.824,VALID,0,VALID,100,VALID,-0.0679233,VALID,18.2183,VALID,104,VALID,0.976944,
2005-07-07, 02:58:00,VALID,917.804,VALID,0,VALID,100,VALID,-0.0339617,VALID,18.2349,VALID,100,VALID,0.783854,
2005-07-07, 02:59:00,VALID,917.776,VALID,0,VALID,100,VALID,-0.0509425,VALID,18.2252,VALID,97,VALID,0.96875,
2005-07-07, 03:00:00,VALID,917.769,VALID,0,VALID,100,VALID,-0.0849042,VALID,18.2284,VALID,98,VALID,0.96317,
2005-07-07, 03:01:00,VALID,917.742,VALID,0,VALID,100,VALID,-0.0339617,VALID,18.2319,VALID,89,VALID,0.83162,
2005-07-07, 03:02:00,VALID,917.747,VALID,0,VALID,100,VALID,-0.0849042,VALID,18.2086,VALID,88,VALID,0.836128,
2005-07-07, 03:03:00,VALID,917.74,VALID,0,VALID,100,VALID,-0.0679233,VALID,18.2121,VALID,89,VALID,0.778088,
2005-07-07, 03:04:00,VALID,917.736,VALID,0,VALID,100,VALID,-0.0679233,VALID,18.1992,VALID,89,VALID,0.838246,
2005-07-07, 03:05:00,VALID,917.738,VALID,0,VALID,100,VALID,-0.0509425,VALID,18.1865,VALID,91,VALID,0.830412,
2005-07-07, 03:06:00,VALID,917.753,VALID,0,VALID,100,VALID,-0.0849042,VALID,18.1802,VALID,93,VALID,0.744368,
2005-07-07, 03:07:00,VALID,917.75,VALID,0,VALID,100,VALID,-0.0679233,VALID,18.18,VALID,98,VALID,0.902253,
2005-07-07, 03:08:00,VALID,917.748,VALID,0,VALID,100,VALID,-0.0339617,VALID,18.1798,VALID,112,VALID,0.597301,
2005-07-07, 03:09:00,VALID,917.75,VALID,0,VALID,100,VALID,-0.0849042,VALID,18.183,VALID,116,VALID,0.67242,
2005-07-07, 03:10:00,VALID,917.746,VALID,0,VALID,100,VALID,-0.0509425,VALID,18.1828,VALID,111,VALID,0.852471,
2005-07-07, 03:11:00,VALID,917.745,VALID,0,VALID,100,VALID,-0.101885,VALID,18.183,VALID,110,VALID,0.638021,
2005-07-07, 03:12:00,VALID,917.735,VALID,0,VALID,100,VALID,-0.0849042,VALID,18.1701,VALID,107,VALID,0.484557,
2005-07-07, 03:13:00,VALID,917.726,VALID,0,VALID,100,VALID,-0.0509425,VALID,18.1574,VALID,98,VALID,0.687691,
2005-07-07, 03:14:00,VALID,917.729,VALID,0,VALID,100,VALID,-0.0849042,VALID,18.1256,VALID,101,VALID,0.703488,
2005-07-07, 03:15:00,VALID,917.725,VALID,0,VALID,100,VALID,-0.0679233,VALID,18.1023,VALID,101,VALID,0.754724,
2005-07-07, 03:16:00,VALID,917.737,VALID,0,VALID,100,VALID,-0.0849042,VALID,18.0929,VALID,99,VALID,0.776163,
2005-07-07, 03:17:00,VALID,917.739,VALID,0,VALID,100,VALID,-0.0339617,VALID,18.0862,VALID,95,VALID,0.804883,
2005-07-07, 03:18:00,VALID,917.744,VALID,0,VALID,100,VALID,-0.0849042,VALID,18.0859,VALID,95,VALID,0.876715,
2005-07-07, 03:19:00,VALID,917.762,VALID,0,VALID,100,VALID,-0.0509425,VALID,18.1058,VALID,95,VALID,0.780488,
2005-07-07, 03:20:00,VALID,917.763,VALID,0,VALID,100,VALID,-0.0679233,VALID,18.1219,VALID,104,VALID,0.710938,
2005-07-07, 03:21:00,VALID,917.755,VALID,0,VALID,100,VALID,-0.0339617,VALID,18.1212,VALID,104,VALID,0.401344,
2005-07-07, 03:22:00,VALID,917.773,VALID,0,VALID,100,VALID,-0.0679233,VALID,18.1155,VALID,104,VALID,0.00818452,
2005-07-07, 03:23:00,VALID,917.786,VALID,0,VALID,100,VALID,-0.0679233,VALID,18.1122,VALID,104,VALID,0,
2005-07-07, 03:24:00,VALID,917.805,VALID,0,VALID,100,VALID,-0.0849042,VALID,18.0991,VALID,104,VALID,0,
2005-07-07, 03:25:00,VALID,917.82,VALID,0,VALID,100,VALID,-0.101885,VALID,18.0963,VALID,104,VALID,0,
2005-07-07, 03:26:00,VALID,917.818,VALID,0,VALID,100,VALID,-0.0849042,VALID,18.0832,VALID,104,VALID,0,
2005-07-07, 03:27:00,VALID,917.812,VALID,0,VALID,100,VALID,-0.0849042,VALID,18.0829,VALID,104,VALID,0,
2005-07-07, 03:28:00,VALID,917.819,VALID,0,VALID,100,VALID,-0.0679233,VALID,18.0961,VALID,104,VALID,0,
2005-07-07, 03:29:00,VALID,917.812,VALID,0,VALID,100,VALID,-0.101885,VALID,18.0735,VALID,104,VALID,0,
2005-07-07, 03:30:00,VALID,917.819,VALID,0,VALID,100,VALID,-0.0849042,VALID,18.0703,VALID,104,VALID,0,
2005-07-07, 03:31:00,VALID,917.82,VALID,0,VALID,100,VALID,-0.101885,VALID,18.0707,VALID,104,VALID,0,
2005-07-07, 03:32:00,VALID,917.831,VALID,0,VALID,100,VALID,-0.0679233,VALID,18.067,VALID,104,VALID,0,
2005-07-07, 03:33:00,VALID,917.835,VALID,0,VALID,100,VALID,-0.0849042,VALID,18.0507,VALID,104,VALID,0,
2005-07-07, 03:34:00,VALID,917.835,VALID,0,VALID,99.9654,VALID,-0.0509425,VALID,18.0248,VALID,104,VALID,0,
2005-07-07, 03:35:00,VALID,917.82,VALID,0,VALID,99.9657,VALID,-0.0849042,VALID,18.0089,VALID,104,VALID,0,
2005-07-07, 03:36:00,VALID,917.81,VALID,0,VALID,99.9977,VALID,-0.101885,VALID,18.0126,VALID,104,VALID,0,
2005-07-07, 03:37:00,VALID,917.789,VALID,0,VALID,99.999,VALID,-0.101885,VALID,17.9891,VALID,104,VALID,0.167515,
2005-07-07, 03:38:00,VALID,917.778,VALID,0,VALID,100,VALID,-0.0849042,VALID,17.9829,VALID,104,VALID,0.360085,
2005-07-07, 03:39:00,VALID,917.77,VALID,0,VALID,100,VALID,-0.0849042,VALID,17.9737,VALID,104,VALID,0.462109,
2005-07-07, 03:40:00,VALID,917.767,VALID,0,VALID,100,VALID,-0.101885,VALID,18.0057,VALID,104,VALID,0.491386,